When you browse on this site, cookies collect data to enhance your experience and personalize the content and advertising you see.
Visit our Privacy Policy to learn more. By continuing to use the site, you agree to this use of cookies and data.
  • In Sweden
  • List of Countries
  • For 7 days
  • Water Temperature
  • Satellite Maps
  • Weather Map
  • Weather Widgets
  • user-avatar
    Login

    Hourly Weather Niedzwiada

    Today, 20 February, Wednesday

    Time Temperature Precipitation Wind Pressure Humidity
    00:00 +3°C° 0 mm 5 mps 752 mmHg 87%
    01:00 +3°C° 0 mm 4 mps 752 mmHg 86%
    02:00 +2°C° 0 mm 5 mps 752 mmHg 87%
    03:00 +2°C° 0 mm 5 mps 752 mmHg 89%
    04:00 +2°C° 0 mm 5 mps 752 mmHg 90%
    05:00 +2°C° 0 mm 6 mps 753 mmHg 89%
    06:00 +2°C° 0 mm 6 mps 753 mmHg 88%
    07:00 +2°C° 0 mm 6 mps 753 mmHg 88%
    08:00 +2°C° 0 mm 6 mps 754 mmHg 82%
    09:00 +3°C° 0 mm 7 mps 754 mmHg 77%
    10:00 +3°C° 0 mm 7 mps 754 mmHg 72%
    11:00 +4°C° 0.1 mm 7 mps 755 mmHg 70%
    12:00 +4°C° 0.1 mm 8 mps 755 mmHg 68%
    13:00 +4°C° 0.1 mm 8 mps 755 mmHg 67%
    14:00 +4°C° 0 mm 7 mps 755 mmHg 67%
    15:00 +4°C° 0 mm 7 mps 755 mmHg 68%
    16:00 +4°C° 0 mm 6 mps 756 mmHg 69%
    17:00 +3°C° 0 mm 6 mps 756 mmHg 71%
    18:00 +3°C° 0 mm 6 mps 756 mmHg 73%
    19:00 +3°C° 0 mm 5 mps 757 mmHg 75%
    20:00 +3°C° 0 mm 5 mps 757 mmHg 76%
    21:00 +3°C° 0 mm 5 mps 757 mmHg 77%
    22:00 +4°C° 0 mm 4 mps 758 mmHg 78%
    23:00 +3°C° 0 mm 4 mps 758 mmHg 82%

    Tomorrow, 21 February, Thursday

    Time Temperature Precipitation Wind Pressure Humidity
    00:00 +3°C° 0 mm 4 mps 758 mmHg 85%
    01:00 +2°C° 0 mm 3 mps 758 mmHg 89%
    02:00 +2°C° 0 mm 3 mps 758 mmHg 90%
    03:00 +2°C° 0 mm 3 mps 758 mmHg 92%
    04:00 +2°C° 0 mm 3 mps 758 mmHg 93%
    05:00 +2°C° 0.2 mm 3 mps 758 mmHg 93%
    06:00 +3°C° 0.2 mm 3 mps 758 mmHg 94%
    07:00 +3°C° 0.2 mm 3 mps 758 mmHg 94%
    08:00 +4°C° 0.2 mm 4 mps 758 mmHg 90%
    09:00 +3°C° 0.2 mm 5 mps 758 mmHg 86%
    10:00 +5°C° 0.2 mm 5 mps 758 mmHg 82%
    11:00 +4°C° 0.6 mm 6 mps 757 mmHg 83%
    12:00 +4°C° 0.6 mm 6 mps 757 mmHg 84%
    13:00 +3°C° 0.6 mm 6 mps 757 mmHg 85%
    14:00 +3°C° 0.9 mm 6 mps 756 mmHg 86%
    15:00 +3°C° 0.9 mm 6 mps 756 mmHg 87%
    16:00 +3°C° 0.9 mm 6 mps 755 mmHg 88%
    17:00 +3°C° 0.6 mm 6 mps 755 mmHg 88%
    18:00 +3°C° 0.6 mm 6 mps 755 mmHg 89%
    19:00 +3°C° 0.6 mm 6 mps 755 mmHg 89%
    20:00 +3°C° 0.7 mm 5 mps 755 mmHg 90%
    21:00 +5°C° 0.7 mm 5 mps 755 mmHg 92%
    22:00 +5°C° 0.7 mm 5 mps 754 mmHg 93%
    23:00 +5°C° 0.4 mm 5 mps 755 mmHg 93%

    Day after tomorrow, 22 February, Friday

    Time Temperature Precipitation Wind Pressure Humidity
    00:00 +5°C° 0.4 mm 5 mps 755 mmHg 94%
    01:00 +5°C° 0.4 mm 5 mps 755 mmHg 94%
    02:00 +2°C° 0.4 mm 5 mps 755 mmHg 91%
    03:00 +1°C° 0.4 mm 6 mps 756 mmHg 88%
    04:00 -1°C° 0.4 mm 7 mps 757 mmHg 85%
    05:00 -2°C° 0 mm 7 mps 758 mmHg 81%
    06:00 -3°C° 0 mm 7 mps 759 mmHg 76%
    07:00 -4°C° 0 mm 7 mps 761 mmHg 72%
    08:00 -4°C° 0 mm 7 mps 762 mmHg 68%
    09:00 -4°C° 0 mm 7 mps 764 mmHg 64%
    10:00 -4°C° 0 mm 7 mps 765 mmHg 60%
    11:00 -3°C° 0 mm 6 mps 766 mmHg 57%
    12:00 -3°C° 0 mm 6 mps 766 mmHg 53%
    13:00 -3°C° 0 mm 6 mps 767 mmHg 50%
    14:00 -3°C° 0 mm 6 mps 768 mmHg 51%
    15:00 -4°C° 0 mm 5 mps 768 mmHg 52%
    16:00 -4°C° 0 mm 5 mps 768 mmHg 52%
    17:00 -5°C° 0 mm 5 mps 769 mmHg 54%
    18:00 -4°C° 0 mm 4 mps 770 mmHg 56%
    19:00 -5°C° 0 mm 4 mps 770 mmHg 57%
    20:00 -5°C° 0 mm 4 mps 771 mmHg 54%
    21:00 -5°C° 0 mm 4 mps 771 mmHg 51%
    22:00 -5°C° 0 mm 4 mps 772 mmHg 48%
    23:00 -5°C° 0 mm 4 mps 772 mmHg 45%

    23 February, Saturday

    Time Temperature Precipitation Wind Pressure Humidity
    00:00 -5°C° 0 mm 4 mps 772 mmHg 42%
    01:00 -5°C° 0 mm 4 mps 773 mmHg 39%
    02:00 -6°C° 0 mm 3 mps 772 mmHg 40%
    03:00 -6°C° 0 mm 3 mps 772 mmHg 41%
    04:00 -6°C° 0 mm 3 mps 772 mmHg 42%
    05:00 -6°C° 0 mm 3 mps 773 mmHg 43%
    06:00 -6°C° 0 mm 3 mps 773 mmHg 45%
    07:00 -6°C° 0 mm 3 mps 773 mmHg 47%
    08:00 -6°C° 0 mm 3 mps 774 mmHg 44%
    09:00 -5°C° 0 mm 3 mps 774 mmHg 40%
    10:00 -5°C° 0 mm 3 mps 774 mmHg 37%
    11:00 -3°C° 0 mm 2 mps 774 mmHg 34%
    12:00 -2°C° 0 mm 2 mps 773 mmHg 32%
    13:00 0°C° 0 mm 1 mps 773 mmHg 29%
    14:00 -2°C° 0 mm 2 mps 773 mmHg 31%
    15:00 -2°C° 0 mm 2 mps 773 mmHg 32%
    16:00 -1°C° 0 mm 2 mps 773 mmHg 33%
    17:00 -2°C° 0 mm 2 mps 773 mmHg 36%
    18:00 -3°C° 0 mm 2 mps 772 mmHg 39%
    19:00 -1°C° 0 mm 1 mps 772 mmHg 42%
    20:00 -1°C° 0 mm 1 mps 772 mmHg 42%
    21:00 -1°C° 0 mm 1 mps 772 mmHg 42%
    22:00 0°C° 0 mm 1 mps 772 mmHg 42%
    23:00 0°C° 0 mm 1 mps 772 mmHg 42%

    24 February, Sunday

    Time Temperature Precipitation Wind Pressure Humidity
    00:00 0°C° 0 mm 1 mps 772 mmHg 42%
    01:00 0°C° 0 mm 1 mps 772 mmHg 42%
    02:00 0°C° 0 mm 1 mps 771 mmHg 42%
    03:00 -2°C° 0 mm 2 mps 771 mmHg 43%
    04:00 -2°C° 0 mm 2 mps 771 mmHg 43%
    05:00 -2°C° 0 mm 2 mps 771 mmHg 44%
    06:00 -3°C° 0 mm 2 mps 770 mmHg 45%
    07:00 -3°C° 0 mm 2 mps 770 mmHg 45%
    08:00 -2°C° 0 mm 3 mps 770 mmHg 42%
    09:00 -1°C° 0 mm 3 mps 770 mmHg 39%
    10:00 +1°C° 0 mm 3 mps 770 mmHg 37%
    11:00 +1°C° 0 mm 3 mps 770 mmHg 38%
    12:00 +2°C° 0 mm 3 mps 770 mmHg 39%
    13:00 +3°C° 0 mm 3 mps 769 mmHg 40%
    14:00 +3°C° 0 mm 3 mps 769 mmHg 46%
    15:00 +3°C° 0 mm 2 mps 769 mmHg 51%
    16:00 +3°C° 0 mm 2 mps 769 mmHg 57%
    17:00 +2°C° 0 mm 2 mps 769 mmHg 61%
    18:00 +1°C° 0 mm 2 mps 769 mmHg 64%
    19:00 +1°C° 0 mm 2 mps 769 mmHg 68%
    20:00 +1°C° 0 mm 2 mps 769 mmHg 69%
    21:00 -1°C° 0 mm 2 mps 769 mmHg 70%
    22:00 -1°C° 0 mm 2 mps 769 mmHg 71%
    23:00 -1°C° 0 mm 2 mps 769 mmHg 72%

    25 February, Monday

    Time Temperature Precipitation Wind Pressure Humidity
    00:00 -1°C° 0 mm 2 mps 769 mmHg 73%
    01:00 -1°C° 0 mm 2 mps 769 mmHg 74%
    02:00 -1°C° 0 mm 2 mps 769 mmHg 73%
    03:00 -1°C° 0 mm 2 mps 768 mmHg 73%
    04:00 -1°C° 0 mm 3 mps 768 mmHg 73%
    05:00 -1°C° 0 mm 3 mps 768 mmHg 74%
    06:00 -1°C° 0 mm 3 mps 768 mmHg 75%
    07:00 -1°C° 0 mm 3 mps 768 mmHg 76%
    08:00 0°C° 0 mm 3 mps 768 mmHg 74%
    09:00 +1°C° 0 mm 3 mps 768 mmHg 71%
    10:00 +1°C° 0 mm 4 mps 768 mmHg 69%
    11:00 +4°C° 0 mm 4 mps 767 mmHg 70%
    12:00 +5°C° 0 mm 5 mps 767 mmHg 71%
    13:00 +6°C° 0 mm 5 mps 767 mmHg 72%
    14:00 +6°C° 0 mm 5 mps 767 mmHg 69%
    15:00 +6°C° 0 mm 4 mps 767 mmHg 66%
    16:00 +6°C° 0 mm 4 mps 767 mmHg 64%
    17:00 +5°C° 0 mm 4 mps 767 mmHg 68%
    18:00 +3°C° 0 mm 4 mps 767 mmHg 73%
    19:00 +1°C° 0 mm 4 mps 768 mmHg 78%
    20:00 0°C° 0 mm 4 mps 768 mmHg 81%
    21:00 0°C° 0 mm 4 mps 768 mmHg 84%
    22:00 -1°C° 0 mm 4 mps 768 mmHg 88%
    23:00 -1°C° 0 mm 4 mps 768 mmHg 88%
    Show more